Stanton, MN

6:51 PM CST on February 24, 2018 (GMT -0600)
Stanton

Weather History for KSYN - February, 2013

Change the Weather History Date:

Wednesday, February 13, 2013

  Actual Average (KLVN) Record (KLVN)
Temperature  
Mean Temperature 27 °F -  
Max Temperature 37 °F 27 °F 59 °F (1997)
Min Temperature 17 °F 10 °F -14 °F (1970)
Degree Days  
Heating Degree Days 38    
Moisture  
Dew Point 24 °F    
Average Humidity 82    
Maximum Humidity 91    
Minimum Humidity 67    
Precipitation  
Precipitation 0.02 in - - ()
Sea Level Pressure  
Sea Level Pressure 29.67 in    
Wind  
Wind Speed 6 mph (SSW)    
Max Wind Speed 9 mph    
Max Gust Speed -    
Visibility 10 miles    
Events Rain    
Averages and records for this station are not official NWS values.
T = Trace of Precipitation, MM = Missing Value Source: NWS Daily Summary

Daily Weather History Graph

Daily Weather History Graph

Search for Another Location

Airport or City:

Trip Planner

Search our weather history database for the weather conditions in past years. The results will help you decide how hot, cold, wet, or windy it might be!

Date:

Astronomy

Feb. 13, 2013 Rise Set
Actual Time 7:14 AM CST 5:38 PM CST
Civil Twilight 6:44 AM CST 6:08 PM CST
Nautical Twilight 6:10 AM CST 6:42 PM CST
Astronomical Twilight 5:36 AM CST 7:16 PM CST
Moon 8:33 AM CST (2/13) 9:54 PM CST (2/13)
Length of Visible Light 11h 24m
Length of Day
10h 24m
Waxing Crescent, 14% of the Moon is Illuminated
Feb 13
Waxing Crescent
Feb 17
First Quarter
Feb 25
Full
Mar 4
Last Quarter
Mar 11
New

Hourly Weather History & Observations

Time (CST) Temp. Windchill Dew Point Humidity Pressure Visibility Wind Dir Wind Speed Gust Speed Precip Events Conditions
12:13 AM 20.7 °F 13.0 °F 16.7 °F 85% 29.79 in 10.0 mi SSW 5.8 mph - N/A   Clear
12:32 AM 19.0 °F 10.0 °F 15.1 °F 85% 29.79 in 10.0 mi SSW 6.9 mph - N/A   Scattered Clouds
12:53 AM 18.7 °F 10.6 °F 15.1 °F 86% 29.78 in 10.0 mi SSW 5.8 mph - N/A   Clear
1:13 AM 18.0 °F 9.8 °F 14.7 °F 87% 29.78 in 10.0 mi SSW 5.8 mph - N/A   Clear
1:32 AM 17.1 °F 7.6 °F 14.0 °F 88% 29.78 in 10.0 mi SSW 6.9 mph - N/A   Clear
1:53 AM 17.4 °F 8.0 °F 14.4 °F 88% 29.78 in 10.0 mi SSW 6.9 mph - N/A   Scattered Clouds
2:13 AM 17.4 °F 9.1 °F 14.4 °F 88% 29.78 in 10.0 mi SSW 5.8 mph - N/A   Scattered Clouds
2:32 AM 18.3 °F 11.5 °F 15.6 °F 89% 29.77 in 10.0 mi SSW 4.6 mph - N/A   Scattered Clouds
2:53 AM 19.2 °F 10.2 °F 16.0 °F 87% 29.77 in 10.0 mi SSW 6.9 mph - N/A   Scattered Clouds
3:12 AM 18.9 °F 12.1 °F 16.0 °F 89% 29.77 in 10.0 mi SSW 4.6 mph - N/A   Scattered Clouds
3:33 AM 20.3 °F 15.4 °F 17.1 °F 87% 29.76 in 10.0 mi SSW 3.5 mph - N/A   Overcast
3:52 AM 21.4 °F 15.1 °F 17.4 °F 85% 29.76 in 10.0 mi SSW 4.6 mph - N/A   Overcast
4:12 AM 22.1 °F 13.7 °F 18.0 °F 84% 29.76 in 10.0 mi SW 6.9 mph - N/A   Overcast
4:33 AM 21.6 °F 13.0 °F 17.2 °F 83% 29.76 in 10.0 mi WSW 6.9 mph - N/A   Scattered Clouds
4:52 AM 21.2 °F 16.4 °F 17.1 °F 84% 29.75 in 10.0 mi South 3.5 mph - N/A   Clear
5:12 AM 20.1 °F 12.3 °F 16.3 °F 85% 29.75 in 10.0 mi SSW 5.8 mph - N/A   Clear
5:33 AM 18.9 °F 10.8 °F 15.1 °F 85% 29.75 in 10.0 mi SSW 5.8 mph - N/A   Clear
5:52 AM 17.8 °F 7.5 °F 14.2 °F 86% 29.75 in 10.0 mi SSW 8.1 mph - N/A   Clear
6:13 AM 19.2 °F 9.3 °F 16.0 °F 87% 29.75 in 10.0 mi SW 8.1 mph - N/A   Mostly Cloudy
6:32 AM 19.9 °F 11.1 °F 16.3 °F 86% 29.74 in 10.0 mi SSW 6.9 mph - N/A   Mostly Cloudy
6:53 AM 19.4 °F 12.8 °F 15.8 °F 86% 29.73 in 10.0 mi SSW 4.6 mph - N/A   Clear
7:13 AM 20.7 °F 13.0 °F 16.9 °F 85% 29.73 in 10.0 mi SSW 5.8 mph - N/A   Scattered Clouds
7:32 AM 20.3 °F 11.5 °F 16.7 °F 86% 29.73 in 10.0 mi SW 6.9 mph - N/A   Scattered Clouds
7:53 AM 20.7 °F 10.2 °F 17.1 °F 86% 29.73 in 10.0 mi SW 9.2 mph - N/A   Scattered Clouds
8:13 AM 21.4 °F 13.8 °F 17.6 °F 85% 29.73 in 10.0 mi SW 5.8 mph - N/A   Mostly Cloudy
8:32 AM 22.5 °F 14.1 °F 18.3 °F 84% 29.72 in 10.0 mi SSW 6.9 mph - N/A   Overcast
8:53 AM 23.2 °F 15.0 °F 19.2 °F 85% 29.73 in 10.0 mi SSW 6.9 mph - N/A   Overcast
9:12 AM 24.1 °F 17.0 °F 19.8 °F 84% 29.72 in 10.0 mi SSW 5.8 mph - N/A   Overcast
9:33 AM 25.0 °F 16.3 °F 20.3 °F 82% 29.71 in 10.0 mi SSW 8.1 mph - N/A   Overcast
9:53 AM 26.1 °F 18.4 °F 21.2 °F 82% 29.71 in 10.0 mi SSW 6.9 mph - N/A   Overcast
10:12 AM 26.6 °F 19.1 °F 21.7 °F 82% 29.71 in 10.0 mi SSW 6.9 mph - N/A   Mostly Cloudy
10:32 AM 28.4 °F 21.2 °F 22.3 °F 78% 29.71 in 10.0 mi SSW 6.9 mph - N/A   Scattered Clouds
10:53 AM 29.3 °F 24.3 °F 22.8 °F 77% 29.71 in 10.0 mi SSW 4.6 mph - N/A   Clear
11:13 AM 30.2 °F 24.3 °F 23.7 °F 77% 29.71 in 10.0 mi SSW 5.8 mph - N/A   Scattered Clouds
11:32 AM 31.8 °F 26.2 °F 24.3 °F 74% 29.70 in 10.0 mi SW 5.8 mph - N/A   Overcast
11:53 AM 32.5 °F 27.1 °F 24.8 °F 73% 29.70 in 10.0 mi SW 5.8 mph - N/A   Overcast
12:13 PM 32.9 °F - 25.3 °F 74% 29.69 in 10.0 mi Calm Calm - N/A   Overcast
12:32 PM 34.2 °F 29.0 °F 25.5 °F 71% 29.68 in 10.0 mi SW 5.8 mph - N/A   Overcast
12:53 PM 34.7 °F 28.8 °F 26.8 °F 73% 29.67 in 10.0 mi SW 6.9 mph - N/A   Overcast
1:13 PM 35.1 °F 31.0 °F 27.1 °F 73% 29.66 in 10.0 mi SSW 4.6 mph - N/A   Overcast
1:32 PM 36.1 °F 31.4 °F 26.4 °F 68% 29.66 in 10.0 mi SSW 5.8 mph - N/A   Overcast
1:53 PM 36.9 °F 30.7 °F 27.5 °F 69% 29.65 in 10.0 mi SSW 8.1 mph - N/A   Mostly Cloudy
2:13 PM 37.6 °F 33.1 °F 27.7 °F 67% 29.64 in 10.0 mi South 5.8 mph - N/A   Scattered Clouds
2:32 PM 37.6 °F 33.1 °F 28.6 °F 70% 29.63 in 10.0 mi South 5.8 mph - N/A   Clear
2:53 PM 36.9 °F 33.1 °F 28.8 °F 72% 29.63 in 10.0 mi SSW 4.6 mph - N/A   Mostly Cloudy
3:13 PM 37.0 °F 33.3 °F 29.3 °F 74% 29.63 in 10.0 mi SSW 4.6 mph - N/A   Overcast
3:32 PM 37.6 °F 32.3 °F 29.5 °F 73% 29.63 in 10.0 mi SSW 6.9 mph - N/A   Mostly Cloudy
3:53 PM 36.9 °F 32.2 °F 29.7 °F 75% 29.62 in 10.0 mi South 5.8 mph - N/A   Mostly Cloudy
4:12 PM 36.5 °F 32.7 °F 30.2 °F 78% 29.63 in 10.0 mi SSW 4.6 mph - N/A   Overcast
4:33 PM 36.5 °F 32.7 °F 30.4 °F 78% 29.63 in 10.0 mi South 4.6 mph - N/A   Overcast
4:52 PM 36.5 °F 32.7 °F 30.6 °F 79% 29.62 in 10.0 mi South 4.6 mph - N/A   Overcast
5:12 PM 36.5 °F 33.9 °F 30.7 °F 80% 29.62 in 10.0 mi SSW 3.5 mph - N/A   Overcast
5:33 PM 36.5 °F 32.7 °F 31.1 °F 81% 29.61 in 10.0 mi South 4.6 mph - N/A   Overcast
5:52 PM 36.9 °F 33.1 °F 30.7 °F 79% 29.60 in 10.0 mi SSE 4.6 mph - N/A   Mostly Cloudy
6:12 PM 36.0 °F 32.1 °F 31.1 °F 82% 29.60 in 10.0 mi South 4.6 mph - N/A   Overcast
6:33 PM 36.0 °F 33.3 °F 31.1 °F 82% 29.60 in 10.0 mi South 3.5 mph - N/A   Overcast
6:52 PM 36.5 °F - 31.1 °F 81% 29.59 in 10.0 mi Calm Calm - N/A   Overcast
7:12 PM 36.0 °F 33.3 °F 31.3 °F 83% 29.58 in 10.0 mi South 3.5 mph - N/A   Overcast
7:33 PM 36.1 °F 33.5 °F 31.6 °F 84% 29.58 in 10.0 mi South 3.5 mph - N/A   Drizzle
7:53 PM 36.0 °F 33.3 °F 32.0 °F 86% 29.57 in 10.0 mi South 3.5 mph - N/A   Drizzle
8:12 PM 35.8 °F 33.0 °F 32.0 °F 86% 29.56 in 7.0 mi South 3.5 mph - N/A   Drizzle
8:33 PM 36.1 °F 33.5 °F 32.4 °F 86% 29.55 in 7.0 mi South 3.5 mph - N/A   Drizzle
8:53 PM 36.0 °F 33.3 °F 32.5 °F 87% 29.55 in 7.0 mi South 3.5 mph - N/A   Drizzle
9:12 PM 35.2 °F 28.1 °F 32.4 °F 89% 29.55 in 4.0 mi WSW 9.2 mph - 0.01 in Rain Rain
9:33 PM 35.6 °F 30.7 °F 32.5 °F 89% 29.54 in 5.0 mi WSW 5.8 mph - 0.02 in Rain Rain
9:52 PM 35.1 °F 31.0 °F 32.2 °F 89% 29.54 in 7.0 mi WSW 4.6 mph - 0.02 in Rain Light Rain
10:12 PM 34.9 °F 30.8 °F 32.2 °F 90% 29.54 in 10.0 mi WSW 4.6 mph - N/A   Light Drizzle
10:33 PM 34.7 °F - 32.2 °F 91% 29.54 in 10.0 mi Calm Calm - N/A   Overcast
10:52 PM 34.9 °F 32.0 °F 32.4 °F 91% 29.54 in 10.0 mi WSW 3.5 mph - N/A   Light Drizzle
11:13 PM 34.9 °F 29.9 °F 32.4 °F 91% 29.54 in 10.0 mi West 5.8 mph - N/A   Overcast
11:33 PM 35.1 °F 28.6 °F 32.0 °F 89% 29.54 in 10.0 mi West 8.1 mph - N/A   Overcast
11:52 PM 35.1 °F 28.6 °F 32.0 °F 89% 29.54 in 10.0 mi West 8.1 mph - N/A   Overcast